Regional Weather Roundup
Issued by NWS Green Bay, WI

Home | Current Version | Previous Version | Text Only | Print | Product List | Glossary On
Versions: 1 2 3 4 5 6 7 8 9 10 11 12 13 14 15 16 17 18 19 20 21 22 23 24 25 26 27 28 29 30 31 32 33 34 35 36 37 38 39 40 41 42 43 44 45 46 47 48 49 50
000
ASUS43 KGRB 301510
RWRGRB

NORTH-CENTRAL AND NORTHEAST WISCONSIN REGIONAL WEATHER ROUNDUP
NATIONAL WEATHER SERVICE GREEN BAY WI
900 AM CST FRI JAN 30 2015

WIZ005-009-010>012-018-019-301600-
NORTH CENTRAL WISCONSIN

CITY           SKY/WX    TMP DP  RH WIND       PRES   REMARKS
IRONWOOD       CLOUDY    10   5  79 SW8       30.42S WCI  -1
MANITOWISH WTR CLOUDY     9   3  77 W3        30.41R
ARBOR VITAE    CLOUDY    11   4  73 CALM      30.42R
EAGLE RIVER    FLURRIES  10   2  71 CALM      30.41R
LAND O LAKES   CLOUDY    10   4  75 W3        30.41R
RHINELANDER    CLOUDY     9   2  73 CALM      30.42R
PHILLIPS       MOSUNNY    7   2  81 CALM      30.43S
ANTIGO         CLOUDY    10   4  74 CALM      30.44R
TOMAHAWK       MOSUNNY   10   2  72 CALM      30.44S
MERRILL        MOSUNNY   11   4  70 W3        30.46R
$$

WIZ013-073-301600-
NORTHEAST WISCONSIN

CITY           SKY/WX    TMP DP  RH WIND       PRES   REMARKS
IRON MOUNTAIN  CLOUDY    10   0  63 NW6       30.46R WCI   0
MARINETTE      MOSUNNY   12   1  62 N8        30.51R WCI   1
OCONTO         CLOUDY    14   3  62 CALM      30.52R
$$

WIZ017-030-035>037-045-301600-
CENTRAL WISCONSIN

CITY           SKY/WX    TMP DP  RH WIND       PRES   REMARKS
MEDFORD        CLOUDY     6   2  82 W3        30.44F
WAUSAU         PTSUNNY   11   3  70 NW5       30.46R WCI   3
MOSINEE        SUNNY     10   7  85 W3        30.48R
MARSHFIELD     CLOUDY     8   2  76 NW5       30.47R WCI   0
WISC RAPIDS    PTSUNNY   12   3  67 CALM      30.51R
STEVENS POINT  PTSUNNY   11   3  69 CALM      30.49R
WAUPACA        MOSUNNY   19   5  55 N5        30.51R
SHAWANO        CLOUDY    16   4  59 N7        30.51S WCI   7
CLINTONVILLE   CLOUDY    16   5  62 N5        30.50S WCI   9
$$

WIZ038-039-048-051-301600-
FOX VALLEY

CITY           SKY/WX    TMP DP  RH WIND       PRES   REMARKS
NWS GREEN BAY  MOSUNNY   18   6  59 N5        30.52R
APPLETON       MOSUNNY   16   3  57 N6        30.49S WCI   7
OSHKOSH        SUNNY     17   5  59 NW7       30.50R WCI   8
FOND DU LAC    FLURRIES  17   6  62 NW6       30.50R WCI   9
$$

WIZ022-050-052-301600-
EAST CENTRAL WISCONSIN

CITY           SKY/WX    TMP DP  RH WIND       PRES   REMARKS
STURGEON BAY   CLOUDY    12   1  62 N13       30.52R WCI  -3
MANITOWOC      SUNNY     17   6  62 N7        30.52R WCI   8
SHEBOYGAN      SUNNY     18   6  59 N8        30.50R WCI   8
$$

LMZ563-521-522-541>543-301600-
LAKESHORE

STATION/POSITION TIME  TEMP    WIND        PRES    VSBY  WAVE
                       AIR SEA DIR/SP/G                  HT/PER
                 (UTC) (F)     (DEG/KT/KT) (MB)    (MI)  (FT/S)
SHEBOYGAN LKSHOR 1500   18     340/ 10/ 12 1034.6R
KEWAUNEE LKSHORE 1500   14      20/  7/ 11 1032.0R
NORTHPORT PIER   1500   13     310/ 11/ 15 1032.5S
SISTER BAY LKSHO 1400   16     360/ 10/ 13   N/A
CHAMBERS ISLAND  1500   13     320/  9/ 11 1033.2R
MENOMINEE LKSHOR 1500   12     350/ 11     1033.9R
$$



USA.gov is the U.S. government's official web portal to all federal, state and local government web resources and services.